Santa Monica, CA

10:39 AM PST on December 10, 2016 (GMT -0800)
Santa Monica Municipal

Weather History for KSMO - March, 2013

Change the Weather History Date:

Saturday, March 23, 2013

  Actual Average Record
Temperature  
Mean Temperature 58 °F -  
Max Temperature 66 °F 69 °F 85 °F (1953)
Min Temperature 51 °F 51 °F 39 °F (1935)
Degree Days  
Heating Degree Days 8    
Growing Degree Days 8 (Base 50)    
Moisture  
Dew Point 51 °F    
Average Humidity 80    
Maximum Humidity 94    
Minimum Humidity 60    
Precipitation  
Precipitation 0.01 in - - ()
Sea Level Pressure  
Sea Level Pressure 29.96 in    
Wind  
Wind Speed 3 mph (NNW)    
Max Wind Speed 10 mph    
Max Gust Speed -    
Visibility 9 miles    
Events      
Averages and records for this station are not official NWS values.
T = Trace of Precipitation, MM = Missing Value Source: NWS Daily Summary

Daily Weather History Graph

Daily Weather History Graph

Search for Another Location

Airport or City:

Trip Planner

Search our weather history database for the weather conditions in past years. The results will help you decide how hot, cold, wet, or windy it might be!

Date:

Astronomy

Mar. 23, 2013 Rise Set
Actual Time 6:52 AM PDT 7:08 PM PDT
Civil Twilight 6:27 AM PDT 7:33 PM PDT
Nautical Twilight 5:58 AM PDT 8:02 PM PDT
Astronomical Twilight 5:29 AM PDT 8:31 PM PDT
Moon 3:47 PM PDT (3/23) 4:22 AM PDT (3/23)
Length of Visible Light 13h 05m
Length of Day
12h 15m
Waxing Gibbous, 86% of the Moon is Illuminated
Mar 23
Waxing Gibbous
Mar 27
Full
Apr 2
Last Quarter
Apr 10
New
Apr 18
First Quarter

Hourly Weather History & Observations

Time (PDT) Temp. Dew Point Humidity Pressure Visibility Wind Dir Wind Speed Gust Speed Precip Events Conditions
12:51 AM 53.1 °F 48.9 °F 86% 29.92 in 9.0 mi NNE 3.5 mph - N/A   Clear
1:51 AM 53.1 °F 48.9 °F 86% 29.92 in 9.0 mi Calm Calm - N/A   Clear
2:07 AM 51.8 °F 48.2 °F 88% 29.92 in 9.0 mi Calm Calm - N/A   Scattered Clouds
2:35 AM 53.6 °F 50.0 °F 88% 29.92 in 7.0 mi Calm Calm - N/A   Mostly Cloudy
2:44 AM 51.8 °F 50.0 °F 94% 29.92 in 7.0 mi NNE 3.5 mph - N/A   Mostly Cloudy
2:51 AM 53.1 °F 50.0 °F 89% 29.92 in 7.0 mi ENE 3.5 mph - N/A   Overcast
3:38 AM 53.6 °F 50.0 °F 88% 29.91 in 7.0 mi Calm Calm - N/A   Overcast
3:51 AM 54.0 °F 51.1 °F 90% 29.92 in 7.0 mi Calm Calm - N/A   Overcast
4:51 AM 54.0 °F 50.0 °F 86% 29.92 in 8.0 mi ENE 3.5 mph - N/A   Partly Cloudy
5:44 AM 53.6 °F 48.2 °F 82% 29.94 in 7.0 mi Calm Calm - 0.01 in   Mostly Cloudy
5:51 AM 52.0 °F 48.9 °F 89% 29.94 in 7.0 mi Calm Calm - 0.01 in   Overcast
6:51 AM 53.1 °F 48.9 °F 86% 29.96 in 6.0 mi NE 3.5 mph - N/A   Partly Cloudy
6:58 AM 53.6 °F 48.2 °F 82% 29.96 in 5.0 mi NE 3.5 mph - N/A   Partly Cloudy
8:51 AM 59.0 °F 51.1 °F 75% 30.00 in 9.0 mi East 4.6 mph - N/A   Scattered Clouds
9:51 AM 60.1 °F 50.0 °F 69% 30.00 in 8.0 mi ESE 6.9 mph - N/A   Partly Cloudy
10:51 AM 64.0 °F 50.0 °F 60% 30.00 in 10.0 mi Variable 3.5 mph - N/A   Clear
1:51 PM 63.0 °F 50.0 °F 63% 29.99 in 10.0 mi WSW 9.2 mph - N/A   Clear
2:51 PM 64.0 °F 51.1 °F 63% 29.97 in 10.0 mi SW 10.4 mph - N/A   Clear
3:51 PM 64.0 °F 51.1 °F 63% 29.96 in 10.0 mi WSW 9.2 mph - N/A   Clear
4:51 PM 62.1 °F 51.1 °F 67% 29.95 in 10.0 mi Variable 6.9 mph - N/A   Clear
5:51 PM 60.1 °F 52.0 °F 75% 29.96 in 10.0 mi WSW 8.1 mph - N/A   Clear
6:51 PM 59.0 °F 53.1 °F 81% 29.96 in 10.0 mi WSW 6.9 mph - N/A   Clear
7:51 PM 59.0 °F 53.1 °F 81% 29.98 in 10.0 mi WSW 5.8 mph - N/A   Partly Cloudy
8:08 PM 59.0 °F 53.6 °F 82% 29.98 in 10.0 mi WSW 5.8 mph - N/A   Partly Cloudy
8:51 PM 57.9 °F 53.1 °F 84% 29.99 in 10.0 mi Calm Calm - N/A   Mostly Cloudy
9:42 PM 57.2 °F 53.6 °F 88% 30.00 in 10.0 mi Calm Calm - N/A   Scattered Clouds
9:51 PM 57.9 °F 52.0 °F 81% 30.01 in 10.0 mi Calm Calm - N/A   Partly Cloudy
10:51 PM 57.9 °F 51.1 °F 78% 30.01 in 10.0 mi Calm Calm - N/A   Clear
11:51 PM 54.0 °F 50.0 °F 86% 30.00 in 7.0 mi Calm Calm - N/A   Clear